• Em Portugal
  • Lista de países
  • Para 7 dias
  • Temperatura da água
  • Mapas de satélite
  • Mapa do tempo
  • Widgets de tempo
  • user-avatar
    Iniciar Sessão

    Previsão horária em Neuquén

    Hoje, 18 Fevereiro, Domingo

    Tempo Temperatura Precipitação Vento Pressão Humidade
    00:00 +29°C° 0 mm 9 m/s 727 mmHg 31%
    01:00 +28°C° 0 mm 9 m/s 727 mmHg 36%
    02:00 +28°C° 0 mm 9 m/s 727 mmHg 39%
    03:00 +27°C° 0 mm 9 m/s 727 mmHg 42%
    04:00 +26°C° 0 mm 9 m/s 727 mmHg 45%
    05:00 +26°C° 0 mm 9 m/s 728 mmHg 44%
    06:00 +26°C° 0 mm 9 m/s 728 mmHg 43%
    07:00 +27°C° 0 mm 10 m/s 728 mmHg 42%
    08:00 +28°C° 0 mm 10 m/s 728 mmHg 37%
    09:00 +31°C° 0 mm 9 m/s 728 mmHg 32%
    10:00 +32°C° 0 mm 9 m/s 728 mmHg 28%
    11:00 +33°C° 0 mm 9 m/s 727 mmHg 25%
    12:00 +34°C° 0 mm 9 m/s 727 mmHg 22%
    13:00 +35°C° 0 mm 9 m/s 726 mmHg 19%
    14:00 +35°C° 0 mm 9 m/s 726 mmHg 18%
    15:00 +35°C° 0 mm 9 m/s 725 mmHg 17%
    16:00 +36°C° 0 mm 10 m/s 725 mmHg 16%
    17:00 +33°C° 0 mm 10 m/s 725 mmHg 17%
    18:00 +32°C° 0 mm 11 m/s 726 mmHg 18%
    19:00 +29°C° 0 mm 11 m/s 726 mmHg 20%
    20:00 +28°C° 0 mm 11 m/s 727 mmHg 24%
    21:00 +26°C° 0 mm 12 m/s 727 mmHg 29%
    22:00 +23°C° 0 mm 12 m/s 728 mmHg 33%
    23:00 +23°C° 0 mm 11 m/s 728 mmHg 36%

    Amanhã, 19 Fevereiro, Segunda-feira

    Tempo Temperatura Precipitação Vento Pressão Humidade
    00:00 +22°C° 0 mm 11 m/s 728 mmHg 38%
    01:00 +21°C° 0 mm 10 m/s 728 mmHg 40%
    02:00 +21°C° 0 mm 10 m/s 728 mmHg 42%
    03:00 +19°C° 0 mm 10 m/s 728 mmHg 44%
    04:00 +19°C° 0 mm 10 m/s 728 mmHg 45%
    05:00 +19°C° 0 mm 10 m/s 729 mmHg 43%
    06:00 +19°C° 0 mm 10 m/s 729 mmHg 41%
    07:00 +21°C° 0 mm 10 m/s 730 mmHg 38%
    08:00 +22°C° 0 mm 9 m/s 730 mmHg 33%
    09:00 +24°C° 0 mm 8 m/s 730 mmHg 27%
    10:00 +27°C° 0 mm 7 m/s 730 mmHg 22%
    11:00 +28°C° 0 mm 7 m/s 729 mmHg 19%
    12:00 +29°C° 0 mm 7 m/s 729 mmHg 16%
    13:00 +30°C° 0 mm 7 m/s 729 mmHg 13%
    14:00 +30°C° 0 mm 6 m/s 728 mmHg 13%
    15:00 +32°C° 0 mm 6 m/s 728 mmHg 12%
    16:00 +32°C° 0 mm 6 m/s 728 mmHg 11%
    17:00 +30°C° 0 mm 6 m/s 728 mmHg 12%
    18:00 +30°C° 0 mm 5 m/s 728 mmHg 12%
    19:00 +29°C° 0 mm 5 m/s 729 mmHg 12%
    20:00 +27°C° 0,1 mm 6 m/s 729 mmHg 20%
    21:00 +26°C° 0,1 mm 8 m/s 729 mmHg 27%
    22:00 +23°C° 0,1 mm 9 m/s 730 mmHg 35%
    23:00 +23°C° 0,1 mm 8 m/s 730 mmHg 36%

    Depois de amanhã, 20 Fevereiro, Terça-feira

    Tempo Temperatura Precipitação Vento Pressão Humidade
    00:00 +22°C° 0,1 mm 7 m/s 730 mmHg 37%
    01:00 +22°C° 0,1 mm 6 m/s 730 mmHg 38%
    02:00 +21°C° 0,3 mm 7 m/s 730 mmHg 40%
    03:00 +20°C° 0,3 mm 7 m/s 731 mmHg 41%
    04:00 +18°C° 0,3 mm 8 m/s 731 mmHg 42%
    05:00 +20°C° 0,2 mm 8 m/s 731 mmHg 40%
    06:00 +20°C° 0,2 mm 7 m/s 732 mmHg 37%
    07:00 +21°C° 0,2 mm 7 m/s 733 mmHg 35%
    08:00 +22°C° 0 mm 7 m/s 733 mmHg 31%
    09:00 +24°C° 0 mm 8 m/s 733 mmHg 27%
    10:00 +26°C° 0 mm 8 m/s 733 mmHg 24%
    11:00 +27°C° 0 mm 8 m/s 733 mmHg 22%
    12:00 +28°C° 0 mm 7 m/s 733 mmHg 20%
    13:00 +29°C° 0 mm 7 m/s 732 mmHg 18%
    14:00 +30°C° 0 mm 6 m/s 732 mmHg 17%
    15:00 +30°C° 0 mm 6 m/s 732 mmHg 16%
    16:00 +32°C° 0 mm 5 m/s 732 mmHg 14%
    17:00 +30°C° 0 mm 4 m/s 732 mmHg 15%
    18:00 +29°C° 0 mm 3 m/s 732 mmHg 15%
    19:00 +28°C° 0 mm 2 m/s 732 mmHg 16%
    20:00 +28°C° 0 mm 2 m/s 733 mmHg 16%
    21:00 +27°C° 0 mm 2 m/s 733 mmHg 16%
    22:00 +27°C° 0 mm 2 m/s 733 mmHg 17%
    23:00 +26°C° 0 mm 2 m/s 733 mmHg 19%

    21 Fevereiro, Quarta-feira

    Tempo Temperatura Precipitação Vento Pressão Humidade
    00:00 +25°C° 0 mm 3 m/s 733 mmHg 21%
    01:00 +24°C° 0 mm 3 m/s 733 mmHg 23%
    02:00 +24°C° 0 mm 3 m/s 733 mmHg 24%
    03:00 +23°C° 0 mm 2 m/s 732 mmHg 25%
    04:00 +23°C° 0 mm 2 m/s 732 mmHg 26%
    05:00 +24°C° 0 mm 2 m/s 733 mmHg 25%
    06:00 +25°C° 0 mm 2 m/s 733 mmHg 24%
    07:00 +26°C° 0 mm 2 m/s 733 mmHg 23%
    08:00 +28°C° 0 mm 3 m/s 733 mmHg 22%
    09:00 +30°C° 0 mm 5 m/s 733 mmHg 22%
    10:00 +33°C° 0 mm 6 m/s 732 mmHg 21%
    11:00 +34°C° 0 mm 6 m/s 732 mmHg 18%
    12:00 +35°C° 0 mm 7 m/s 731 mmHg 15%
    13:00 +36°C° 0 mm 7 m/s 730 mmHg 13%
    14:00 +36°C° 0 mm 6 m/s 730 mmHg 12%
    15:00 +36°C° 0 mm 6 m/s 729 mmHg 12%
    16:00 +36°C° 0 mm 5 m/s 728 mmHg 12%
    17:00 +35°C° 0 mm 5 m/s 729 mmHg 12%
    18:00 +34°C° 0 mm 5 m/s 729 mmHg 13%
    19:00 +33°C° 0 mm 4 m/s 729 mmHg 14%
    20:00 +30°C° 0 mm 6 m/s 730 mmHg 14%
    21:00 +29°C° 0 mm 7 m/s 730 mmHg 15%
    22:00 +28°C° 0 mm 9 m/s 731 mmHg 16%
    23:00 +27°C° 0 mm 8 m/s 731 mmHg 20%

    22 Fevereiro, Quinta-feira

    Tempo Temperatura Precipitação Vento Pressão Humidade
    00:00 +26°C° 0 mm 7 m/s 731 mmHg 23%
    01:00 +24°C° 0 mm 6 m/s 731 mmHg 27%
    02:00 +24°C° 0 mm 6 m/s 731 mmHg 29%
    03:00 +23°C° 0 mm 5 m/s 731 mmHg 32%
    04:00 +23°C° 0 mm 5 m/s 731 mmHg 34%
    05:00 +23°C° 0 mm 5 m/s 732 mmHg 36%
    06:00 +23°C° 0 mm 5 m/s 733 mmHg 37%
    07:00 +25°C° 0 mm 5 m/s 733 mmHg 39%
    08:00 +26°C° 0 mm 5 m/s 733 mmHg 37%
    09:00 +27°C° 0 mm 4 m/s 733 mmHg 35%
    10:00 +28°C° 0 mm 4 m/s 734 mmHg 33%
    11:00 +28°C° 0 mm 5 m/s 734 mmHg 31%
    12:00 +28°C° 0 mm 5 m/s 734 mmHg 30%
    13:00 +29°C° 0 mm 5 m/s 734 mmHg 28%
    14:00 +27°C° 0,3 mm 6 m/s 734 mmHg 33%
    15:00 +26°C° 0,3 mm 7 m/s 734 mmHg 39%
    16:00 +23°C° 0,3 mm 7 m/s 734 mmHg 44%
    17:00 +22°C° 0,3 mm 6 m/s 735 mmHg 46%
    18:00 +22°C° 0,3 mm 5 m/s 736 mmHg 49%
    19:00 +21°C° 0,3 mm 4 m/s 736 mmHg 51%
    20:00 +21°C° 0,1 mm 4 m/s 736 mmHg 51%
    21:00 +21°C° 0,1 mm 4 m/s 737 mmHg 52%
    22:00 +20°C° 0,1 mm 3 m/s 737 mmHg 52%
    23:00 +20°C° 0 mm 3 m/s 737 mmHg 52%

    23 Fevereiro, Sexta-feira

    Tempo Temperatura Precipitação Vento Pressão Humidade
    00:00 +20°C° 0 mm 3 m/s 737 mmHg 51%
    01:00 +20°C° 0 mm 2 m/s 736 mmHg 51%
    02:00 +19°C° 0 mm 2 m/s 737 mmHg 53%
    03:00 +19°C° 0 mm 2 m/s 737 mmHg 54%
    04:00 +20°C° 0 mm 1 m/s 737 mmHg 56%
    05:00 +19°C° 0 mm 2 m/s 738 mmHg 54%
    06:00 +19°C° 0 mm 2 m/s 738 mmHg 53%
    07:00 +20°C° 0 mm 2 m/s 738 mmHg 52%
    08:00 +22°C° 0 mm 1 m/s 738 mmHg 48%
    09:00 +23°C° 0 mm 1 m/s 738 mmHg 44%
    10:00 +24°C° 0 mm 1 m/s 738 mmHg 40%
    11:00 +25°C° 0 mm 1 m/s 738 mmHg 37%
    12:00 +26°C° 0 mm 1 m/s 738 mmHg 33%
    13:00 +27°C° 0 mm 1 m/s 737 mmHg 30%
    14:00 +28°C° 0 mm 1 m/s 737 mmHg 28%
    15:00 +29°C° 0 mm 2 m/s 737 mmHg 25%
    16:00 +29°C° 0 mm 2 m/s 736 mmHg 23%
    17:00 +29°C° 0 mm 2 m/s 736 mmHg 23%
    18:00 +29°C° 0 mm 3 m/s 736 mmHg 23%
    19:00 +28°C° 0 mm 3 m/s 737 mmHg 24%
    20:00 +28°C° 0 mm 3 m/s 737 mmHg 24%
    21:00 +27°C° 0 mm 4 m/s 737 mmHg 24%
    22:00 +26°C° 0 mm 4 m/s 737 mmHg 24%
    23:00 +26°C° 0 mm 4 m/s 737 mmHg 24%
    Mostrar mais